This is the latest recevied weather packets stored in our database for station/object HS1WDC-1. If no packets are shown the sender has not sent any weather packets the latest 10 day(s).
| Time | Temp. | Humidity | Pressure | Rain* | Wind** | Luminosity | Snow |
|---|---|---|---|---|---|---|---|
| 1777878291 | 40.56° C | 43% | 1006 hPa | - | - | 0 W/m² | - |
| 1777877367 | 40.56° C | 43% | 1007 hPa | - | - | 0 W/m² | - |
| 1777876443 | 40.56° C | 43% | 1007 hPa | - | - | 0 W/m² | - |
| 1777875518 | 39.44° C | 44% | 1007 hPa | - | - | 0 W/m² | - |
| 1777874593 | 39.44° C | 45% | 1008 hPa | - | - | 0 W/m² | - |
| 1777873669 | 38.89° C | 45% | 1008 hPa | - | - | 0 W/m² | - |
| 1777872745 | 38.33° C | 49% | 1009 hPa | - | - | 0 W/m² | - |
| 1777871820 | 38.33° C | 48% | 1009 hPa | - | - | 0 W/m² | - |
| 1777870896 | 37.78° C | 51% | 1009 hPa | - | - | 0 W/m² | - |
| 1777869972 | 37.78° C | 50% | 1009 hPa | - | - | 0 W/m² | - |
| 1777869047 | 37.78° C | 47% | 1009 hPa | - | - | 0 W/m² | - |
| 1777868123 | 40° C | 40% | 1009 hPa | - | - | 0 W/m² | - |
| 1777867198 | 40° C | 40% | 1009 hPa | - | - | 0 W/m² | - |
| 1777844091 | 34.44° C | 59% | 1007 hPa | - | - | 0 W/m² | - |
| 1777841318 | 35.56° C | 56% | 1007 hPa | - | - | 0 W/m² | - |
| 1777838545 | 35.56° C | 56% | 1006 hPa | - | - | 0 W/m² | - |
| 1777836674 | 35.56° C | 57% | 1006 hPa | - | - | 0 W/m² | - |
| 1777834821 | 35.56° C | 56% | 1007 hPa | - | - | 0 W/m² | - |
| 1777832048 | 36.67° C | 53% | 1008 hPa | - | - | 0 W/m² | - |
| 1777831124 | 36.67° C | 52% | 1008 hPa | - | - | 0 W/m² | - |
| 1777828351 | 36.67° C | 51% | 1008 hPa | - | - | 0 W/m² | - |
| 1777827426 | 37.22° C | 49% | 1008 hPa | - | - | 0 W/m² | - |
| 1777825578 | 36.67° C | 50% | 1008 hPa | - | - | 0 W/m² | - |
| 1777824654 | 37.22° C | 47% | 1008 hPa | - | - | 0 W/m² | - |
| 1777818184 | 38.89° C | 41% | 1006 hPa | - | - | 0 W/m² | - |
* Rain since midnight (hover to see other rain measurements)
** Current wind speed in m/s (hover to see current wind gust speed)